Weather History for Holloman AFB, NM

Change the Weather History Date:

Saturday, June 22, 2013

  Actual Average Record
Temperature  
Mean Temperature 86 °F -  
Max Temperature 99 °F 92 °F 100 °F (2014)
Min Temperature 75 °F 62 °F 58 °F (2008)
Cooling Degree Days 22    
Growing Degree Days 36 (Base 50)    
Moisture  
Dew Point 28 °F    
Average Humidity 12    
Maximum Humidity 38    
Minimum Humidity 7    
Precipitation  
Precipitation 0.00 in - - ()
Sea Level Pressure  
Sea Level Pressure 29.86 in    
Wind  
Wind Speed 13 mph (WSW)    
Max Wind Speed 23 mph    
Max Gust Speed 29 mph    
Visibility 10 miles    
Events      
Averages and records for this station are not official NWS values.
T = Trace of Precipitation, MM = Missing Value Source: NWS Daily Summary

Daily Weather History Graph

Daily Weather History Graph

Search for Another Location

Airport:

Trip Planner

Search our weather history database for the weather conditions in past years. The results will help you decide how hot, cold, wet, or windy it might be!

Date:

Astronomy

Jun. 22, 2013 Rise Set
Actual Time 5:56 AM MDT 8:16 PM MDT
Civil Twilight 5:28 AM MDT 8:44 PM MDT
Nautical Twilight 4:53 AM MDT 9:19 PM MDT
Astronomical Twilight 4:14 AM MDT 9:58 PM MDT
Moon 7:36 PM MDT (6/22) 5:09 AM MDT (6/22)
Length of Visible Light 15h 16m
Length of Day
14h 19m
Waxing Gibbous, 99% of the Moon is Illuminated
Jun 22
Waxing Gibbous
Jun 23
Full
Jun 29
Last Quarter
Jul 8
New
Jul 15
First Quarter

Hourly Weather History & Observations

Time (MDT) Temp. Dew Point Humidity Pressure Visibility Wind Dir Wind Speed Gust Speed Precip Events Conditions
12:58 AM 79.7 °F 41.4 °F 26% 29.71 in 10.0 mi SE 8.1 mph - N/A   Partly Cloudy
1:58 AM 78.3 °F 43.2 °F 29% 29.72 in 10.0 mi South 9.2 mph - N/A   Partly Cloudy
2:58 AM 76.5 °F 45.9 °F 34% 29.72 in 10.0 mi South 9.2 mph - N/A   Clear
7:30 AM 75.2 °F 48.2 °F 38% 29.76 in 7.0 mi South 10.4 mph - N/A   Partly Cloudy
7:58 AM 79.0 °F 48.6 °F 34% 29.79 in 10.0 mi SSE 15.0 mph - N/A   Clear
8:58 AM 84.9 °F 48.7 °F 28% 29.79 in 10.0 mi South 17.3 mph - N/A   Clear
9:58 AM 88.7 °F 43.2 °F 20% 29.79 in 10.0 mi South 11.5 mph - N/A   Clear
10:58 AM 94.5 °F 25.2 °F 8% 29.78 in 10.0 mi SSW 11.5 mph 20.7 mph N/A   Clear
11:12 AM 95.0 °F 26.6 °F 9% 30.02 in 10.0 mi SSW 16.1 mph 21.9 mph N/A   Clear
11:23 AM 95.0 °F 26.6 °F 9% 30.02 in 10.0 mi WSW 17.3 mph 23.0 mph N/A   Clear
11:24 AM 95.0 °F 26.6 °F 9% 30.02 in 10.0 mi WSW 17.3 mph 23.0 mph N/A   Clear
11:30 AM 95.0 °F 26.6 °F 9% 30.02 in 10.0 mi West 13.8 mph 25.3 mph N/A   Clear
11:31 AM 95.0 °F 26.6 °F 9% 30.02 in 10.0 mi West 12.7 mph 25.3 mph N/A   Clear
11:58 AM 96.3 °F 26.4 °F 8% 29.77 in 10.0 mi SW 11.5 mph 27.6 mph N/A   Clear
12:27 PM 96.8 °F 24.8 °F 8% 29.99 in 10.0 mi West 17.3 mph 26.5 mph N/A   Clear
12:41 PM 96.8 °F 24.8 °F 8% 29.99 in 10.0 mi SW 17.3 mph 27.6 mph N/A   Partly Cloudy
12:44 PM 96.8 °F 24.8 °F 8% 29.99 in 10.0 mi West 17.3 mph 27.6 mph N/A   Partly Cloudy
12:45 PM 96.8 °F 24.8 °F 8% 29.99 in 10.0 mi West 17.3 mph 27.6 mph N/A   Partly Cloudy
12:46 PM 96.8 °F 24.8 °F 8% 29.99 in 10.0 mi West 18.4 mph 27.6 mph N/A   Partly Cloudy
12:58 PM 96.4 °F 25.3 °F 8% 29.74 in 10.0 mi SW 15.0 mph 19.6 mph N/A   Scattered Clouds
1:42 PM 98.6 °F 24.8 °F 7% 29.97 in 10.0 mi WSW 17.3 mph 26.5 mph N/A   Mostly Cloudy
1:58 PM 97.9 °F 24.6 °F 7% 29.72 in 10.0 mi WSW 23.0 mph 28.8 mph N/A   Mostly Cloudy
2:13 PM 98.6 °F 24.8 °F 7% 29.95 in 10.0 mi West 20.7 mph 25.3 mph N/A   Scattered Clouds
2:32 PM 98.6 °F 24.8 °F 7% 29.94 in 10.0 mi WSW 17.3 mph - N/A   Partly Cloudy
2:40 PM 98.6 °F 24.8 °F 7% 29.94 in 10.0 mi West 17.3 mph 21.9 mph N/A   Partly Cloudy
2:42 PM 98.6 °F 24.8 °F 7% 29.94 in 10.0 mi West 17.3 mph 25.3 mph N/A   Partly Cloudy
2:58 PM 98.4 °F 24.8 °F 7% 29.70 in 10.0 mi WSW 10.4 mph 26.5 mph N/A   Clear
3:04 PM 98.6 °F 24.8 °F 7% 29.93 in 10.0 mi SW 13.8 mph 21.9 mph N/A   Partly Cloudy
3:58 PM 98.6 °F 28.4 °F 8% 29.90 in 10.0 mi SW 13.8 mph 20.7 mph N/A   Clear
4:05 PM 98.6 °F 28.4 °F 8% 29.90 in 10.0 mi SSW 13.8 mph 23.0 mph N/A   Clear
4:45 PM 98.6 °F 28.4 °F 8% 29.88 in 10.0 mi SW 13.8 mph - N/A   Clear
4:56 PM 98.6 °F 26.6 °F 8% 29.88 in 10.0 mi WSW 18.4 mph 24.2 mph N/A   Clear
4:57 PM 98.6 °F 26.6 °F 8% 29.88 in 10.0 mi West 18.4 mph 24.2 mph N/A   Clear
4:58 PM 97.7 °F 26.4 °F 8% 29.88 in 10.0 mi West 17.3 mph 24.2 mph N/A   Clear
5:58 PM 96.4 °F 23.5 °F 7% 29.86 in 10.0 mi West 18.4 mph - N/A   Clear
6:58 PM 94.8 °F 22.3 °F 7% 29.86 in 10.0 mi West 13.8 mph - N/A   Clear
7:58 PM 93.6 °F 21.2 °F 7% 29.64 in 10.0 mi West 5.8 mph - N/A   Clear
8:58 PM 89.1 °F 21.0 °F 8% 29.65 in 10.0 mi WSW 4.6 mph - N/A   Clear
9:58 PM 84.2 °F 22.5 °F 10% 29.67 in 10.0 mi NNW 3.5 mph - N/A   Clear
10:58 PM 77.7 °F 20.1 °F 12% 29.68 in 10.0 mi NE 1.2 mph - N/A   Clear
11:58 PM 75.9 °F 19.9 °F 12% 29.68 in 10.0 mi Calm Calm - N/A   Clear